KB3HHA Weather Reports


Display with metric or nautical units.
time (UTC)temp
F
wind
direction
speed
MPH
gust
MPH
rain 1hr
in
rain 24hr
in
rain mn
in
humidity
%
barometer
mb
20171022010147 54 225 0.0 0.0 0.00 0.00 0.00 89 1027.4
20171022005647 55 225 0.0 0.0 0.00 0.00 0.00 88 1027.4
20171022005147 55 225 0.0 0.0 0.00 0.00 0.00 88 1027.3
20171022004647 55 225 0.0 0.0 0.00 0.00 0.00 88 1027.3
20171022004147 55 225 0.0 0.0 0.00 0.00 0.00 88 1027.2
20171022003647 55 225 0.0 0.0 0.00 0.00 0.00 88 1027.2
20171022003147 56 225 0.0 0.0 0.00 0.00 0.00 88 1027.2
20171022002647 56 225 0.0 0.0 0.00 0.00 0.00 88 1027.3
20171022002147 56 225 0.0 0.0 0.00 0.00 0.00 87 1027.2
20171022001648 56 225 0.0 0.0 0.00 0.00 0.00 86 1027.3
20171022001148 56 225 0.0 0.0 0.00 0.00 0.00 86 1027.2
20171022000647 57 225 0.0 0.0 0.00 0.00 0.00 86 1027.2
20171022000148 57 225 0.0 0.0 0.00 0.00 0.00 86 1027.3
20171021235647 57 225 0.0 0.0 0.00 0.00 0.00 85 1027.2
20171021235147 57 225 0.0 0.0 0.00 0.00 0.00 85 1027.2
20171021234648 57 225 0.0 0.0 0.00 0.00 0.00 84 1027.1
20171021234148 58 225 0.0 0.0 0.00 0.00 0.00 83 1027.2
20171021233647 58 225 0.0 0.0 0.00 0.00 0.00 83 1027.1
20171021233147 58 225 0.0 0.0 0.00 0.00 0.00 83 1027.0
20171021232648 59 225 0.0 0.0 0.00 0.00 0.00 83 1027.0
20171021232147 59 225 0.0 0.0 0.00 0.00 0.00 82 1027.0
20171021231647 59 225 0.0 0.0 0.00 0.00 0.00 81 1026.9
20171021231148 59 225 0.0 0.0 0.00 0.00 0.00 81 1026.9
20171021230648 60 225 0.0 0.0 0.00 0.00 0.00 79 1026.8
20171021230148 60 225 0.0 0.0 0.00 0.00 0.00 79 1026.8
20171021225648 60 225 0.0 0.0 0.00 0.00 0.00 77 1026.8
20171021225147 61 225 0.0 0.0 0.00 0.00 0.00 77 1026.8
20171021224648 61 225 0.0 0.0 0.00 0.00 0.00 76 1026.7
20171021224148 62 225 0.0 0.0 0.00 0.00 0.00 76 1026.7
20171021223648 62 225 0.0 0.0 0.00 0.00 0.00 74 1026.6
20171021223148 63 225 0.0 0.0 0.00 0.00 0.00 73 1026.6
20171021222648 63 225 0.0 0.0 0.00 0.00 0.00 73 1026.5
20171021222148 63 225 0.0 0.0 0.00 0.00 0.00 72 1026.5
20171021221648 64 225 0.0 0.0 0.00 0.00 0.00 71 1026.5
20171021221148 64 225 0.0 0.0 0.00 0.00 0.00 70 1026.5
20171021220648 65 225 0.0 0.0 0.00 0.00 0.00 69 1026.4
20171021220148 66 225 0.0 0.0 0.00 0.00 0.00 69 1026.4
20171021215648 66 225 0.0 0.0 0.00 0.00 0.00 69 1026.3
20171021215148 67 225 0.0 0.0 0.00 0.00 0.00 69 1026.4
20171021214648 67 225 0.0 0.0 0.00 0.00 0.00 67 1026.3
20171021214148 68 225 0.0 0.0 0.00 0.00 0.00 68 1026.3
20171021213648 69 225 0.0 0.0 0.00 0.00 0.00 66 1026.3
20171021213148 69 225 0.0 0.0 0.00 0.00 0.00 63 1026.3
20171021212648 70 225 0.0 0.0 0.00 0.00 0.00 60 1026.3
20171021212148 70 225 0.0 0.0 0.00 0.00 0.00 57 1026.2
20171021211648 71 225 0.0 0.0 0.00 0.00 0.00 53 1026.1
20171021211148 71 225 0.0 0.0 0.00 0.00 0.00 52 1026.1
20171021210648 72 225 0.0 0.0 0.00 0.00 0.00 49 1026.2
20171021210148 72 225 0.0 0.0 0.00 0.00 0.00 48 1026.1
20171021205648 73 225 0.0 0.0 0.00 0.00 0.00 45 1026.1
20171021205148 73 225 0.0 0.0 0.00 0.00 0.00 44 1026.0
20171021204648 74 225 0.0 0.0 0.00 0.00 0.00 44 1026.0
20171021204148 75 225 0.0 0.0 0.00 0.00 0.00 40 1026.0
20171021203648 75 225 0.0 0.0 0.00 0.00 0.00 38 1025.9
20171021203148 75 225 0.0 0.0 0.00 0.00 0.00 41 1025.8
20171021202648 76 225 0.0 0.0 0.00 0.00 0.00 37 1025.8
20171021202148 77 225 0.0 0.0 0.00 0.00 0.00 35 1025.8
20171021201649 77 247 0.0 0.0 0.00 0.00 0.00 34 1025.8
20171021201148 77 225 0.0 0.0 0.00 0.00 0.00 31 1025.9
20171021200650 77 247 0.0 0.0 0.00 0.00 0.00 32 1025.9
20171021200148 77 247 0.0 0.0 0.00 0.00 0.00 34 1025.9
20171021195648 77 270 0.0 1.0 0.00 0.00 0.00 35 1025.8
20171021195148 77 270 0.0 1.0 0.00 0.00 0.00 33 1025.9
20171021194648 77 225 0.0 0.0 0.00 0.00 0.00 38 1025.9
20171021194148 77 225 0.0 0.0 0.00 0.00 0.00 39 1025.9
20171021193648 77 202 0.0 3.0 0.00 0.00 0.00 31 1025.9
20171021193148 77 225 0.0 3.0 0.00 0.00 0.00 31 1026.0
20171021192648 77 225 0.0 0.0 0.00 0.00 0.00 30 1025.9
20171021192148 77 225 0.0 0.0 0.00 0.00 0.00 33 1025.9
20171021191648 77 225 0.0 0.0 0.00 0.00 0.00 35 1025.9
20171021191148 77 225 0.0 0.0 0.00 0.00 0.00 36 1025.8
20171021190648 77 225 0.0 0.0 0.00 0.00 0.00 37 1025.8
20171021190148 77 202 0.0 0.0 0.00 0.00 0.00 33 1025.6
20171021185648 77 202 0.0 0.0 0.00 0.00 0.00 31 1025.7
20171021185148 77 225 0.0 3.0 0.00 0.00 0.00 31 1025.7
20171021184648 77 225 1.0 3.0 0.00 0.00 0.00 32 1025.8
20171021184149 76 225 0.0 2.0 0.00 0.00 0.00 33 1025.9
20171021183648 76 337 0.0 0.0 0.00 0.00 0.00 33 1025.8
20171021183148 77 45 0.0 0.0 0.00 0.00 0.00 34 1025.8
20171021182648 77 225 0.0 0.0 0.00 0.00 0.00 33 1025.9
20171021182149 77 22 0.0 0.0 0.00 0.00 0.00 32 1025.9
20171021181648 77 247 0.0 0.0 0.00 0.00 0.00 33 1026.0
20171021181148 77 270 0.0 0.0 0.00 0.00 0.00 35 1025.9
20171021180648 77 270 0.0 1.0 0.00 0.00 0.00 30 1026.0
20171021180149 77 225 0.0 1.0 0.00 0.00 0.00 31 1026.1
20171021175649 76 22 0.0 0.0 0.00 0.00 0.00 34 1026.2
20171021175148 77 0 0.0 1.0 0.00 0.00 0.00 31 1026.2
20171021174648 76 225 0.0 2.0 0.00 0.00 0.00 32 1026.3
20171021174148 76 247 0.0 2.0 0.00 0.00 0.00 35 1026.4
20171021173648 75 0 0.0 2.0 0.00 0.00 0.00 36 1026.4
20171021173149 75 0 0.0 0.0 0.00 0.00 0.00 33 1026.4
20171021172649 76 225 0.0 0.0 0.00 0.00 0.00 36 1026.5
20171021172148 76 202 0.0 0.0 0.00 0.00 0.00 35 1026.6
20171021171649 76 225 0.0 0.0 0.00 0.00 0.00 32 1026.7
20171021171149 76 225 0.0 0.0 0.00 0.00 0.00 36 1026.7
20171021170649 75 225 0.0 0.0 0.00 0.00 0.00 36 1026.8
20171021170149 75 0 0.0 0.0 0.00 0.00 0.00 36 1026.8
20171021165648 75 0 0.0 4.0 0.00 0.00 0.00 35 1026.9
20171021165149 75 225 0.0 4.0 0.00 0.00 0.00 36 1026.9
20171021164649 74 225 0.0 0.0 0.00 0.00 0.00 39 1027.0
20171021164149 74 225 0.0 0.0 0.00 0.00 0.00 36 1027.1
20171021163648 74 225 0.0 0.0 0.00 0.00 0.00 37 1027.2
20171021163149 74 225 0.0 0.0 0.00 0.00 0.00 39 1027.2
20171021162648 73 202 0.0 0.0 0.00 0.00 0.00 39 1027.3
20171021162148 72 0 0.0 0.0 0.00 0.00 0.00 39 1027.4
20171021161649 72 0 0.0 0.0 0.00 0.00 0.00 42 1027.4
20171021161149 72 270 0.0 0.0 0.00 0.00 0.00 42 1027.4
20171021160648 72 292 0.0 0.0 0.00 0.00 0.00 42 1027.4
20171021160149 71 225 0.0 1.0 0.00 0.00 0.00 42 1027.5
20171021155648 71 202 0.0 4.0 0.00 0.00 0.00 46 1027.5
20171021155149 70 22 1.0 4.0 0.00 0.00 0.00 45 1027.5
20171021154649 70 225 0.0 0.0 0.00 0.00 0.00 46 1027.5
20171021154149 69 225 0.0 0.0 0.00 0.00 0.00 47 1027.5
20171021153649 68 225 0.0 0.0 0.00 0.00 0.00 49 1027.6
20171021153148 68 225 0.0 0.0 0.00 0.00 0.00 53 1027.6
20171021152649 67 225 0.0 0.0 0.00 0.00 0.00 54 1027.7
20171021152148 67 225 0.0 0.0 0.00 0.00 0.00 54 1027.7
20171021151649 66 180 0.0 0.0 0.00 0.00 0.00 60 1027.7
20171021151148 65 180 0.0 0.0 0.00 0.00 0.00 64 1027.7
20171021150649 64 180 0.0 0.0 0.00 0.00 0.00 66 1027.6
20171021150149 64 180 0.0 0.0 0.00 0.00 0.00 69 1027.7
20171021145649 63 180 0.0 0.0 0.00 0.00 0.00 70 1027.6
20171021145149 62 180 0.0 0.0 0.00 0.00 0.00 76 1027.7
20171021144649 61 180 0.0 0.0 0.00 0.00 0.00 80 1027.7
20171021144149 60 180 0.0 0.0 0.00 0.00 0.00 84 1027.7
20171021143649 59 180 0.0 0.0 0.00 0.00 0.00 88 1027.7
20171021143149 58 180 0.0 0.0 0.00 0.00 0.00 91 1027.7
20171021142650 57 180 0.0 0.0 0.00 0.00 0.00 96 1027.7
20171021142149 56 180 0.0 0.0 0.00 0.00 0.00 98 1027.7
20171021141649 56 180 0.0 0.0 0.00 0.00 0.00 98 1027.7
20171021141149 55 180 0.0 0.0 0.00 0.00 0.00 98 1027.6
20171021140649 55 180 0.0 0.0 0.00 0.00 0.00 98 1027.7
20171021140149 54 180 0.0 0.0 0.00 0.00 0.00 98 1027.8
20171021135649 53 180 0.0 0.0 0.00 0.00 0.00 98 1027.8
20171021135149 51 180 0.0 0.0 0.00 0.00 0.00 98 1027.7
20171021134649 51 180 0.0 0.0 0.00 0.00 0.00 98 1027.7
20171021134149 50 180 0.0 0.0 0.00 0.00 0.00 98 1027.7
20171021133649 49 180 0.0 0.0 0.00 0.00 0.00 98 1027.6
20171021133149 48 180 0.0 0.0 0.00 0.00 0.00 98 1027.6
20171021132649 48 180 0.0 0.0 0.00 0.00 0.00 98 1027.6
20171021132149 47 180 0.0 0.0 0.00 0.00 0.00 98 1027.6
20171021131649 47 180 0.0 0.0 0.00 0.00 0.00 97 1027.6
20171021131152 46 180 0.0 0.0 0.00 0.00 0.00 97 1027.6
20171021130650 45 180 0.0 0.0 0.00 0.00 0.00 97 1027.5
20171021130149 45 180 0.0 0.0 0.00 0.00 0.00 97 1027.5
20171021125649 44 180 0.0 0.0 0.00 0.00 0.00 97 1027.5
20171021125149 44 180 0.0 0.0 0.00 0.00 0.00 97 1027.4
20171021124649 43 180 0.0 0.0 0.00 0.00 0.00 97 1027.4
20171021124149 43 180 0.0 0.0 0.00 0.00 0.00 97 1027.3
20171021123649 43 180 0.0 0.0 0.00 0.00 0.00 97 1027.3
20171021123149 42 180 0.0 0.0 0.00 0.00 0.00 97 1027.2
20171021122649 42 180 0.0 0.0 0.00 0.00 0.00 96 1027.2
20171021122149 42 180 0.0 0.0 0.00 0.00 0.00 96 1027.1
20171021121649 42 180 0.0 0.0 0.00 0.00 0.00 96 1027.1
20171021121149 41 180 0.0 0.0 0.00 0.00 0.00 96 1027.1
20171021120649 41 180 0.0 0.0 0.00 0.00 0.00 96 1027.0
20171021120149 41 180 0.0 0.0 0.00 0.00 0.00 96 1026.9
20171021115649 41 180 0.0 0.0 0.00 0.00 0.00 96 1026.7
20171021115149 41 180 0.0 0.0 0.00 0.00 0.00 96 1026.7
20171021114649 41 180 0.0 0.0 0.00 0.00 0.00 96 1026.6
20171021114149 41 180 0.0 0.0 0.00 0.00 0.00 96 1026.6
20171021113649 41 180 0.0 0.0 0.00 0.00 0.00 96 1026.5
20171021113149 41 180 0.0 0.0 0.00 0.00 0.00 96 1026.4
20171021112649 41 180 0.0 0.0 0.00 0.00 0.00 96 1026.4
20171021112149 41 180 0.0 0.0 0.00 0.00 0.00 96 1026.3
20171021111649 41 180 0.0 0.0 0.00 0.00 0.00 96 1026.2
20171021111149 41 180 0.0 0.0 0.00 0.00 0.00 96 1026.2
20171021110649 41 180 0.0 0.0 0.00 0.00 0.00 96 1026.1
20171021110149 41 180 0.0 0.0 0.00 0.00 0.00 96 1026.1
20171021105651 42 180 0.0 0.0 0.00 0.00 0.00 96 1026.2
20171021105149 42 180 0.0 0.0 0.00 0.00 0.00 96 1026.2
20171021104649 42 180 0.0 0.0 0.00 0.00 0.00 96 1026.1
20171021104149 41 180 0.0 0.0 0.00 0.00 0.00 96 1026.1
20171021103649 42 180 0.0 0.0 0.00 0.00 0.00 95 1026.0
20171021103149 42 180 0.0 0.0 0.00 0.00 0.00 95 1026.0
20171021102649 42 180 0.0 0.0 0.00 0.00 0.00 95 1025.9
20171021102149 42 180 0.0 0.0 0.00 0.00 0.00 95 1025.8
20171021101650 42 180 0.0 0.0 0.00 0.00 0.00 96 1025.8
20171021101149 42 180 0.0 0.0 0.00 0.00 0.00 95 1025.7
20171021100649 42 180 0.0 0.0 0.00 0.00 0.00 95 1025.6
20171021100150 42 180 0.0 0.0 0.00 0.00 0.00 95 1025.6
20171021095649 42 180 0.0 0.0 0.00 0.00 0.00 95 1025.5
20171021095150 42 180 0.0 0.0 0.00 0.00 0.00 95 1025.5
20171021094649 42 180 0.0 0.0 0.00 0.00 0.00 95 1025.4
20171021094149 42 180 0.0 0.0 0.00 0.00 0.00 96 1025.4
20171021093649 42 180 0.0 0.0 0.00 0.00 0.00 96 1025.5
20171021093151 42 180 0.0 0.0 0.00 0.00 0.00 96 1025.4
20171021092650 42 180 0.0 0.0 0.00 0.00 0.00 95 1025.4
20171021092150 42 180 0.0 0.0 0.00 0.00 0.00 95 1025.4
20171021091650 42 180 0.0 0.0 0.00 0.00 0.00 95 1025.3
20171021091150 42 180 0.0 0.0 0.00 0.00 0.00 95 1025.3
20171021090650 43 180 0.0 0.0 0.00 0.00 0.00 95 1025.2
20171021090149 43 180 0.0 0.0 0.00 0.00 0.00 95 1025.1
20171021085650 43 180 0.0 0.0 0.00 0.00 0.00 95 1025.1
20171021085150 43 180 0.0 0.0 0.00 0.00 0.00 95 1025.1
20171021084650 43 180 0.0 0.0 0.00 0.00 0.00 95 1025.0
20171021084150 43 180 0.0 0.0 0.00 0.00 0.00 95 1025.0
20171021083650 43 180 0.0 0.0 0.00 0.00 0.00 95 1024.9
20171021083150 43 180 0.0 0.0 0.00 0.00 0.00 95 1024.8
20171021082650 43 180 0.0 0.0 0.00 0.00 0.00 95 1024.8
20171021082149 43 180 0.0 0.0 0.00 0.00 0.00 95 1024.7
20171021081649 43 180 0.0 0.0 0.00 0.00 0.00 95 1024.7
20171021081149 43 180 0.0 0.0 0.00 0.00 0.00 95 1024.8
20171021080650 43 180 0.0 0.0 0.00 0.00 0.00 95 1024.8
20171021080150 43 180 0.0 0.0 0.00 0.00 0.00 95 1024.7
20171021075649 43 180 0.0 0.0 0.00 0.00 0.00 95 1024.8
20171021075149 44 180 0.0 0.0 0.00 0.00 0.00 95 1024.8
20171021074650 44 180 0.0 0.0 0.00 0.00 0.00 95 1024.7
20171021074150 44 180 0.0 0.0 0.00 0.00 0.00 95 1024.6
20171021073649 44 180 0.0 0.0 0.00 0.00 0.00 95 1024.6
20171021073150 44 180 0.0 0.0 0.00 0.00 0.00 95 1024.6
20171021072649 44 180 0.0 0.0 0.00 0.00 0.00 95 1024.4
20171021072149 44 180 0.0 0.0 0.00 0.00 0.00 95 1024.4
20171021071649 44 180 0.0 0.0 0.00 0.00 0.00 95 1024.4
20171021071150 44 180 0.0 0.0 0.00 0.00 0.00 95 1024.6
20171021070650 44 180 0.0 0.0 0.00 0.00 0.00 95 1024.7
20171021070150 44 180 0.0 0.0 0.00 0.00 0.00 95 1024.7
20171021065649 45 180 0.0 0.0 0.00 0.00 0.00 95 1024.7
20171021065150 45 180 0.0 0.0 0.00 0.00 0.00 95 1024.7
20171021064650 45 180 0.0 0.0 0.00 0.00 0.00 95 1024.7
20171021064150 45 180 0.0 0.0 0.00 0.00 0.00 95 1024.8
20171021063650 45 180 0.0 0.0 0.00 0.00 0.00 95 1024.7
20171021063150 45 180 0.0 0.0 0.00 0.00 0.00 95 1024.7
20171021062650 45 180 0.0 0.0 0.00 0.00 0.00 95 1024.7
20171021062150 45 180 0.0 0.0 0.00 0.00 0.00 94 1024.7
20171021061650 45 180 0.0 0.0 0.00 0.00 0.00 94 1024.7
20171021061150 45 180 0.0 0.0 0.00 0.00 0.00 94 1024.7
20171021060649 45 180 0.0 0.0 0.00 0.00 0.00 94 1024.6
20171021060150 45 180 0.0 0.0 0.00 0.00 0.00 94 1024.6
20171021055651 45 180 0.0 0.0 0.00 0.00 0.00 94 1024.6
20171021055150 45 180 0.0 0.0 0.00 0.00 0.00 94 1024.5
20171021054650 46 180 0.0 0.0 0.00 0.00 0.00 94 1024.6
20171021054150 46 180 0.0 0.0 0.00 0.00 0.00 94 1024.5
20171021053650 46 180 0.0 0.0 0.00 0.00 0.00 94 1024.6
20171021053150 46 180 0.0 0.0 0.00 0.00 0.00 94 1024.5
20171021052650 46 180 0.0 0.0 0.00 0.00 0.00 94 1024.6
20171021052150 46 180 0.0 0.0 0.00 0.00 0.00 94 1024.6
20171021051650 46 180 0.0 0.0 0.00 0.00 0.00 94 1024.6
20171021051150 46 180 0.0 0.0 0.00 0.00 0.00 94 1024.5
20171021050650 46 180 0.0 0.0 0.00 0.00 0.00 94 1024.5
20171021050150 46 180 0.0 0.0 0.00 0.00 0.00 94 1024.4
20171021045652 47 180 0.0 0.0 0.00 0.00 0.00 94 1024.3
20171021045150 47 180 0.0 0.0 0.00 0.00 0.00 94 1024.3
20171021044650 47 180 0.0 0.0 0.00 0.00 0.00 94 1024.3
20171021044150 47 180 0.0 0.0 0.00 0.00 0.00 94 1024.3
20171021043651 47 180 0.0 0.0 0.00 0.00 0.00 94 1024.4
20171021043150 47 180 0.0 0.0 0.00 0.00 0.00 94 1024.3
20171021042658 47 180 0.0 0.0 0.00 0.00 0.00 94 1024.4
20171021042150 47 180 0.0 0.0 0.00 0.00 0.00 94 1024.3
20171021041650 47 180 0.0 0.0 0.00 0.00 0.00 94 1024.4
20171021041151 47 180 0.0 0.0 0.00 0.00 0.00 94 1024.3
20171021040650 48 180 0.0 0.0 0.00 0.00 0.00 94 1024.3
20171021040150 48 180 0.0 0.0 0.00 0.00 0.00 94 1024.3
20171021035650 48 180 0.0 0.0 0.00 0.00 0.00 94 1024.2
20171021035150 48 180 0.0 0.0 0.00 0.00 0.00 94 1024.2
20171021034650 48 180 0.0 0.0 0.00 0.00 0.00 94 1024.2
20171021034150 48 180 0.0 0.0 0.00 0.00 0.00 94 1024.2
20171021033650 48 180 0.0 0.0 0.00 0.00 0.00 94 1024.1
20171021033150 48 180 0.0 0.0 0.00 0.00 0.00 93 1024.0
20171021032650 48 180 0.0 0.0 0.00 0.00 0.00 93 1024.1
20171021032150 48 180 0.0 0.0 0.00 0.00 0.00 93 1024.0
20171021031650 48 180 0.0 0.0 0.00 0.00 0.00 93 1024.1
20171021031150 49 180 0.0 0.0 0.00 0.00 0.00 93 1024.1
20171021030650 49 180 0.0 0.0 0.00 0.00 0.00 93 1023.9
20171021030150 49 180 0.0 0.0 0.00 0.00 0.00 93 1024.0
20171021025650 49 180 0.0 0.0 0.00 0.00 0.00 93 1024.0
20171021025150 49 180 0.0 0.0 0.00 0.00 0.00 93 1023.9
20171021024651 49 180 0.0 0.0 0.00 0.00 0.00 93 1023.9
20171021024150 49 180 0.0 0.0 0.00 0.00 0.00 92 1023.8
20171021023650 49 180 0.0 0.0 0.00 0.00 0.00 92 1023.8
20171021023150 49 180 0.0 0.0 0.00 0.00 0.00 92 1023.8
20171021022651 50 180 0.0 0.0 0.00 0.00 0.00 92 1023.8
20171021022150 50 180 0.0 0.0 0.00 0.00 0.00 92 1023.8
20171021021650 50 180 0.0 0.0 0.00 0.00 0.00 92 1023.7
20171021021150 50 180 0.0 0.0 0.00 0.00 0.00 92 1023.6
20171021020650 50 180 0.0 0.0 0.00 0.00 0.00 92 1023.7
20171021020150 50 180 0.0 0.0 0.00 0.00 0.00 91 1023.7
20171021015650 50 180 0.0 0.0 0.00 0.00 0.00 91 1023.6
20171021015150 50 180 0.0 0.0 0.00 0.00 0.00 91 1023.6
20171021014651 51 180 0.0 0.0 0.00 0.00 0.00 90 1023.6
20171021014151 51 180 0.0 0.0 0.00 0.00 0.00 90 1023.6
20171021013650 51 180 0.0 0.0 0.00 0.00 0.00 90 1023.6
20171021013150 51 180 0.0 0.0 0.00 0.00 0.00 90 1023.5
20171021012650 51 180 0.0 0.0 0.00 0.00 0.00 90 1023.5
20171021012150 51 180 0.0 0.0 0.00 0.00 0.00 90 1023.5
20171021011650 52 180 0.0 0.0 0.00 0.00 0.00 89 1023.4
20171021011150 52 180 0.0 0.0 0.00 0.00 0.00 89 1023.2
20171021010651 52 180 0.0 0.0 0.00 0.00 0.00 90 1023.1